| time (UTC) | temp F | wind direction | speed knots | gust knots | rain 1hr in | rain 24hr in | rain mn in | humidity % | barometer mb |
| 20260504231528 | 54 | 235 | 1.7 | 7.0 | 0.00 | 0.00 | 0.00 | 84 | 1010.8 |
| 20260504230028 | 55 | 227 | 1.7 | 7.0 | 0.00 | 0.00 | 0.00 | 83 | 1010.8 |
| 20260504224529 | 55 | 0 | 1.7 | 8.7 | 0.00 | 0.00 | 0.00 | 82 | 1010.8 |
| 20260504223029 | 56 | 218 | 2.6 | 7.8 | 0.00 | 0.00 | 0.00 | 81 | 1010.8 |
| 20260504221530 | 56 | 163 | 3.5 | 11.3 | 0.00 | 0.00 | 0.00 | 79 | 1011.0 |
| 20260504220030 | 56 | 202 | 5.2 | 11.3 | 0.00 | 0.00 | 0.00 | 78 | 1010.8 |
| 20260504214530 | 57 | 230 | 3.5 | 10.4 | 0.00 | 0.00 | 0.00 | 77 | 1010.8 |
| 20260504213027 | 57 | 153 | 3.5 | 7.8 | 0.00 | 0.00 | 0.00 | 77 | 1010.8 |
| 20260504211530 | 57 | 175 | 3.5 | 10.4 | 0.00 | 0.00 | 0.00 | 75 | 1010.7 |
| 20260504210034 | 58 | 196 | 2.6 | 8.7 | 0.00 | 0.00 | 0.00 | 74 | 1010.8 |
| 20260504204530 | 58 | 200 | 2.6 | 11.3 | 0.00 | 0.00 | 0.00 | 74 | 1010.9 |
| 20260504203049 | 58 | 0 | 4.3 | 10.4 | 0.00 | 0.00 | 0.00 | 73 | 1010.7 |
| 20260504201528 | 58 | 205 | 3.5 | 10.4 | 0.00 | 0.00 | 0.00 | 73 | 1010.9 |
| 20260504200028 | 58 | 246 | 5.2 | 12.2 | 0.00 | 0.00 | 0.00 | 73 | 1011.1 |
| 20260504194533 | 58 | 260 | 4.3 | 12.2 | 0.00 | 0.00 | 0.00 | 73 | 1011.2 |
| 20260504193026 | 59 | 236 | 5.2 | 13.9 | 0.00 | 0.00 | 0.00 | 71 | 1011.1 |
| 20260504191530 | 60 | 242 | 5.2 | 10.4 | 0.00 | 0.00 | 0.00 | 68 | 1011.2 |
| 20260504190030 | 60 | 223 | 5.2 | 14.8 | 0.00 | 0.00 | 0.00 | 68 | 1011.2 |
| 20260504184533 | 61 | 207 | 3.5 | 11.3 | 0.00 | 0.00 | 0.00 | 67 | 1011.4 |
| 20260504183032 | 60 | 250 | 6.1 | 13.0 | 0.00 | 0.00 | 0.00 | 68 | 1011.7 |
| 20260504181528 | 60 | 237 | 4.3 | 12.2 | 0.00 | 0.00 | 0.00 | 70 | 1011.8 |
| 20260504180029 | 60 | 242 | 3.5 | 12.2 | 0.00 | 0.00 | 0.00 | 70 | 1011.8 |
| 20260504174528 | 60 | 195 | 3.5 | 9.6 | 0.00 | 0.00 | 0.00 | 71 | 1012.0 |
| 20260504173027 | 59 | 215 | 4.3 | 9.6 | 0.00 | 0.00 | 0.00 | 71 | 1012.1 |
| 20260504171527 | 59 | 272 | 5.2 | 10.4 | 0.00 | 0.00 | 0.00 | 73 | 1012.4 |
| 20260504081533 | 53 | 230 | 3.5 | 8.7 | 0.00 | 0.00 | 0.00 | 71 | 1013.0 |
| 20260504044532 | 52 | 246 | 0.0 | 2.6 | 0.00 | 0.00 | 0.00 | 74 | 1012.4 |
| 20260504043030 | 53 | 0 | 0.0 | 4.3 | 0.00 | 0.00 | 0.00 | 72 | 1012.4 |
| 20260504041529 | 53 | 249 | 0.9 | 6.1 | 0.00 | 0.00 | 0.00 | 72 | 1012.3 |
| 20260504040031 | 53 | 0 | 0.9 | 4.3 | 0.00 | 0.00 | 0.00 | 73 | 1012.3 |
| 20260504034529 | 53 | 251 | 0.9 | 3.5 | 0.00 | 0.00 | 0.00 | 74 | 1012.2 |
| 20260504033034 | 52 | 277 | 0.0 | 2.6 | 0.00 | 0.00 | 0.00 | 77 | 1012.0 |
| 20260504031531 | 50 | 278 | 0.0 | 2.6 | 0.00 | 0.00 | 0.00 | 79 | 1011.9 |
| 20260504030030 | 48 | 0 | 0.0 | 1.7 | 0.00 | 0.00 | 0.00 | 73 | 1011.9 |
| 20260504024528 | 48 | 0 | 0.0 | 0.0 | 0.00 | 0.00 | 0.00 | 64 | 1012.0 |
| 20260504023030 | 49 | 0 | 0.0 | 0.0 | 0.00 | 0.00 | 0.00 | 57 | 1011.9 |
| 20260504021530 | 50 | 0 | 0.0 | 0.0 | 0.00 | 0.00 | 0.00 | 53 | 1011.8 |
| 20260504020030 | 50 | 0 | 0.0 | 0.0 | 0.00 | 0.00 | 0.00 | 52 | 1011.9 |
| 20260504014541 | 51 | 0 | 0.0 | 0.0 | 0.00 | 0.00 | 0.00 | 49 | 1011.7 |
| 20260504013034 | 52 | 0 | 0.0 | 0.0 | 0.00 | 0.00 | 0.00 | 46 | 1011.6 |
| 20260504011528 | 52 | 0 | 0.0 | 0.0 | 0.00 | 0.00 | 0.00 | 44 | 1011.4 |
| 20260504010030 | 53 | 0 | 0.0 | 0.0 | 0.00 | 0.00 | 0.00 | 43 | 1011.3 |
| 20260504004528 | 54 | 0 | 0.0 | 0.0 | 0.00 | 0.00 | 0.00 | 40 | 1011.0 |
| 20260504003027 | 54 | 0 | 0.0 | 0.0 | 0.00 | 0.00 | 0.00 | 39 | 1010.9 |
| 20260504001527 | 55 | 0 | 0.0 | 0.0 | 0.00 | 0.00 | 0.00 | 37 | 1010.6 |
| 20260504000039 | 56 | 0 | 0.0 | 3.5 | 0.00 | 0.00 | 0.00 | 35 | 1010.3 |
| 20260503234530 | 57 | 0 | 0.0 | 2.6 | 0.00 | 0.00 | 0.00 | 34 | 1010.1 |
| 20260503233029 | 57 | 0 | 0.0 | 7.0 | 0.00 | 0.00 | 0.00 | 33 | 1009.9 |